#timestamp,LO_Frequency,Hit 
1498057215.7,286047002.0,N
1498057235.5,286046998.4,N
1498057255.4,286046997.2,N
1498057275.2,286046995.1,N
1498057295.0,286046994.7,N
1498057295.9,286046994.7,N
1498057315.8,286046992.7,N
1498057335.6,286046992.8,N
1498057355.4,286046988.6,N
1498057375.3,286046992.8,N
1498057395.1,286046991.8,N
1498057415.9,286046990.5,N
1498057435.7,286046989.5,N
1498057455.5,286046985.9,N
1498057475.4,286046986.5,N
1498057495.2,286046980.5,N
1498057515.0,286046979.4,N
1498057515.9,286046979.4,N
1498057535.8,286046978.7,N
1498057555.6,286046974.5,N
1498057575.5,286046973.7,N
1498057595.3,286046973.4,N
1498057615.1,286046973.5,N
1498057635.9,286046970.9,N
1498057655.7,286046969.7,N
1498057675.5,286046969.7,N
1498057695.4,286046969.6,N
1498057715.2,286046967.8,N
1498057735.1,286046966.7,N
1498057736.0,286046966.7,N
1498057755.8,286046963.2,N
1498057775.6,286046962.5,N
1498057795.5,286046960.2,N
1498057815.3,286046959.2,N
1498057835.2,286046957.4,N
1498057855.9,286046957.3,N
1498057875.7,286046957.1,N
1498057895.6,286046956.1,N
1498057915.4,286046953.9,N
1498057935.2,286046954.6,N
1498057955.1,286046954.2,N
1498057956.0,286046954.2,N
1498057975.8,286046952.2,N
1498057995.7,286046951.0,N
1498058015.5,286046950.8,N
1498058035.3,286046949.2,N
1498058055.2,286046949.0,N
1498058075.0,286046949.5,N
1498058075.9,286046949.5,N
1498058095.8,286046947.7,N
1498058115.6,286046945.8,N
1498058135.4,286046944.5,N
1498058155.3,286046944.2,N
1498058175.1,286046942.4,N
1498058195.8,286046941.7,N
1498058215.7,286046941.0,N
1498058235.5,286046940.9,N
1498058255.4,286046941.7,N
1498058275.2,286046940.9,N
1498058295.0,286046945.0,N
1498058295.9,286046945.0,N
1498058315.8,286046943.2,N
1498058335.6,286046939.4,N
1498058355.4,286046939.6,N
1498058375.3,286046941.8,N
1498058395.1,286046940.1,N
1498058415.9,286046935.8,N
1498058435.7,286046935.7,N
1498058455.5,286046935.3,N
1498058475.4,286046934.8,N
1498058495.2,286046934.2,N
1498058515.0,286046936.5,N
1498058515.9,286046936.5,N
1498058535.8,286046936.3,N
1498058555.6,286046934.7,N
1498058575.5,286046937.2,N
1498058595.3,286046934.7,N
1498058615.1,286046932.8,N
1498058635.9,286046935.1,N
1498058655.1,286046932.9,N
1498058675.9,286046934.9,N
1498058695.7,286046935.3,N
1498058715.5,286046933.4,N
1498058735.4,286046929.8,N
1498058755.2,286046930.6,N
1498058775.1,286046927.7,N
1498058776.0,286046927.7,N
1498058795.8,286046928.7,N
1498058815.6,286046928.0,N
1498058835.5,286046929.5,N
1498058855.3,286046926.5,N
1498058875.1,286046928.9,N
1498058895.9,286046927.7,N
1498058915.7,286046927.9,N
1498058935.6,286046929.1,N
1498058955.4,286046928.7,N
1498058975.2,286046928.7,N
1498058995.1,286046927.7,N
1498058996.0,286046927.7,N
1498059015.8,286046926.5,N
1498059035.7,286046925.2,N
1498059055.5,286046935.1,N
1498059075.3,286046925.4,N
1498059095.2,286046923.5,N
1498059115.9,286046924.3,N
1498059135.7,286046923.2,N
1498059155.6,286046923.9,N
1498059175.4,286046924.0,N
1498059195.3,286046923.7,N
1498059215.1,286046923.2,N
1498059216.0,286046923.2,N
1498059235.8,286046920.2,N
1498059255.7,286046921.2,N
1498059275.5,286046919.4,N
1498059295.3,286046920.6,N
1498059315.2,286046922.7,N
1498059335.0,286046922.4,N
1498059335.9,286046922.4,N
1498059355.8,286046922.7,N
1498059375.6,286046922.7,N
1498059395.4,286046922.0,N
1498059415.3,286046920.1,N
1498059435.1,286046922.1,N
1498059455.8,286046919.4,N
1498059475.7,286046920.9,N
1498059495.5,286046919.2,N
1498059515.4,286046917.4,N
1498059535.2,286046916.7,N
1498059555.0,286046917.4,N
1498059555.9,286046917.4,N
1498059575.8,286046917.3,N
1498059595.6,286046915.5,N
1498059615.4,286046916.3,N
1498059635.3,286046915.4,N
1498059655.1,286046916.3,N
1498059675.9,286046915.4,N
1498059695.7,286046916.3,N
1498059715.5,286046914.7,N
1498059735.4,286046914.8,N
1498059755.2,286046912.1,N
1498059775.0,286046911.8,N
1498059775.9,286046911.8,N
1498059795.8,286046911.9,N
1498059815.6,286046911.3,N
1498059835.5,286046910.4,N
1498059855.3,286046912.8,N
1498059875.1,286046908.5,N
1498059895.9,286046910.0,N
1498059915.7,286046912.7,N
1498059935.6,286046910.2,N
1498059955.4,286046910.7,N
1498059975.2,286046912.7,N
1498059995.1,286046913.0,N
1498059996.0,286046913.0,N
1498060015.8,286046914.8,N
1498060035.6,286046913.9,N
1498060055.5,286046912.1,N
1498060075.3,286046911.2,N
1498060095.2,286046910.8,N
1498060115.9,286046914.6,N
1498060135.7,286046914.4,N
1498060155.6,286046911.0,N
1498060175.4,286046911.1,N
1498060195.2,286046913.2,N
1498060215.1,286046914.3,N
1498060216.0,286046914.3,N
1498060235.8,286046915.8,N
1498060255.7,286046913.4,N
1498060275.5,286046913.4,N
1498060295.3,286046915.9,N
1498060315.2,286046917.9,N
1498060335.9,286046917.5,N
1498060355.7,286046917.1,N
1498060375.6,286046916.3,N
1498060395.4,286046914.8,N
1498060415.3,286046912.1,N
1498060435.1,286046912.5,N
1498060436.0,286046912.5,N
1498060455.8,286046912.8,N
1498060475.7,286046912.5,N
1498060495.5,286046910.8,N
1498060515.4,286046908.6,N
1498060535.2,286046905.8,N
1498060555.0,286046906.8,N
1498060555.9,286046906.8,N
1498060575.8,286046905.6,N
1498060595.6,286046905.7,N
1498060615.4,286046906.2,N
1498060635.3,286046905.8,N
1498060655.1,286046906.2,N
1498060675.9,286046903.8,N
1498060695.7,286046902.7,N
1498060715.5,286046902.7,N
1498060735.4,286046903.3,N
1498060755.2,286046903.4,N
1498060775.0,286046906.4,N
1498060775.9,286046906.4,N
1498060795.8,286046905.2,N
